�������l�o���
Date,Time,MP-1(��Sv/h),MP-2(��Sv/h),MP-3(��Sv/h),MP-4(��Sv/h),MP-5(��Sv/h),MP-6(��Sv/h),MP-7(��Sv/h),MP-8(��Sv/h),����,����(m/s),���J
2024/01/06,00:00,0.508,0.769,0.483,0.967,0.692,0.312,0.560,0.523,���k��,3.7,��
2024/01/06,00:10,0.507,0.767,0.484,0.966,0.692,0.313,0.559,0.525,��,3.2,��
2024/01/06,00:20,0.509,0.769,0.483,0.967,0.690,0.313,0.559,0.523,��,2.3,��
2024/01/06,00:30,0.509,0.770,0.485,0.968,0.691,0.312,0.558,0.523,���k��,2.6,��
2024/01/06,00:40,0.508,0.766,0.485,0.968,0.692,0.312,0.558,0.524,���k��,3.5,��
2024/01/06,00:50,0.509,0.767,0.483,0.967,0.692,0.313,0.558,0.525,���k��,3.8,��
2024/01/06,01:00,0.508,0.768,0.483,0.968,0.692,0.313,0.559,0.524,�k��,3.2,��
2024/01/06,01:10,0.508,0.770,0.484,0.967,0.693,0.311,0.559,0.524,�k��,2.5,��
2024/01/06,01:20,0.508,0.770,0.484,0.968,0.692,0.312,0.560,0.523,�k��,2.9,��
2024/01/06,01:30,0.508,0.770,0.485,0.966,0.691,0.313,0.559,0.524,�k��,3.5,��
2024/01/06,01:40,0.508,0.768,0.484,0.970,0.692,0.314,0.559,0.525,�k�k��,2.6,��
2024/01/06,01:50,0.508,0.768,0.484,0.968,0.694,0.313,0.560,0.523,�k��,6.7,��
2024/01/06,02:00,0.509,0.768,0.485,0.971,0.692,0.313,0.561,0.525,�k�k��,3.0,��
2024/01/06,02:10,0.510,0.770,0.484,0.968,0.692,0.313,0.559,0.525,�k,3.2,��
2024/01/06,02:20,0.509,0.771,0.486,0.969,0.691,0.313,0.560,0.523,�k�k��,4.5,��
2024/01/06,02:30,0.510,0.770,0.483,0.969,0.691,0.313,0.561,0.525,�k�k��,4.7,��
2024/01/06,02:40,0.508,0.768,0.484,0.968,0.690,0.313,0.559,0.524,�k,3.1,��
2024/01/06,02:50,0.509,0.769,0.485,0.968,0.692,0.313,0.560,0.523,��,2.2,��
2024/01/06,03:00,0.510,0.768,0.486,0.970,0.692,0.312,0.560,0.525,���쐼,3.0,��
2024/01/06,03:10,0.509,0.769,0.484,0.968,0.691,0.313,0.559,0.523,�k��,3.2,��
2024/01/06,03:20,0.510,0.770,0.484,0.968,0.693,0.314,0.559,0.525,���k��,3.5,��
2024/01/06,03:30,0.510,0.769,0.484,0.969,0.693,0.312,0.559,0.523,�k��,4.4,��
2024/01/06,03:40,0.509,0.767,0.485,0.967,0.691,0.311,0.560,0.523,�k��,2.8,��
2024/01/06,03:50,0.508,0.769,0.485,0.968,0.692,0.312,0.560,0.525,�k,2.0,��
2024/01/06,04:00,0.509,0.769,0.483,0.969,0.692,0.313,0.560,0.524,�k,2.9,��
2024/01/06,04:10,0.508,0.769,0.484,0.967,0.694,0.313,0.560,0.523,�k��,0.6,��
2024/01/06,04:20,0.510,0.768,0.484,0.968,0.693,0.313,0.560,0.524,��쐼,3.0,��
2024/01/06,04:30,0.509,0.767,0.485,0.969,0.693,0.314,0.561,0.526,�쐼,3.1,��
2024/01/06,04:40,0.509,0.770,0.485,0.968,0.693,0.312,0.560,0.523,�쐼,3.0,��
2024/01/06,04:50,0.509,0.770,0.483,0.970,0.692,0.313,0.559,0.524,���쐼,5.1,��
2024/01/06,05:00,0.510,0.767,0.484,0.969,0.693,0.313,0.560,0.524,��,3.0,��
2024/01/06,05:10,0.509,0.770,0.485,0.968,0.692,0.314,0.559,0.523,�쐼,2.6,��
2024/01/06,05:20,0.508,0.768,0.485,0.968,0.692,0.311,0.559,0.524,�쐼,1.7,��
2024/01/06,05:30,0.507,0.767,0.483,0.968,0.693,0.313,0.559,0.522,��쐼,1.5,��
2024/01/06,05:40,0.508,0.768,0.483,0.967,0.693,0.314,0.559,0.522,���쐼,2.0,��
2024/01/06,05:50,0.508,0.769,0.483,0.967,0.690,0.312,0.559,0.524,��,1.5,��
2024/01/06,06:00,0.509,0.767,0.483,0.968,0.694,0.313,0.558,0.523,��쐼,1.9,��
2024/01/06,06:10,0.509,0.768,0.482,0.967,0.691,0.314,0.560,0.524,�쓌,2.3,��
2024/01/06,06:20,0.508,0.771,0.485,0.967,0.691,0.312,0.560,0.524,��쓌,2.6,��
2024/01/06,06:30,0.509,0.770,0.484,0.966,0.693,0.312,0.558,0.523,��,1.7,��
2024/01/06,06:40,0.507,0.770,0.484,0.969,0.693,0.313,0.559,0.525,��쓌,2.5,��
2024/01/06,06:50,0.509,0.768,0.483,0.969,0.691,0.313,0.559,0.523,��쐼,1.2,��
2024/01/06,07:00,0.510,0.768,0.485,0.967,0.693,0.314,0.559,0.523,-,CALM,��
2024/01/06,07:10,0.510,0.771,0.485,0.969,0.692,0.313,0.559,0.523,-,CALM,��
2024/01/06,07:20,0.509,0.769,0.485,0.971,0.692,0.314,0.559,0.523,��,1.2,��
2024/01/06,07:30,0.509,0.768,0.486,0.969,0.692,0.313,0.559,0.524,��쐼,1.5,��
2024/01/06,07:40,0.509,0.768,0.484,0.967,0.693,0.313,0.559,0.522,��쓌,1.5,��
2024/01/06,07:50,0.509,0.770,0.484,0.969,0.694,0.314,0.560,0.525,�쓌,1.2,��
2024/01/06,08:00,0.510,0.770,0.483,0.968,0.693,0.313,0.559,0.523,�쓌,1.7,��
2024/01/06,08:10,0.509,0.770,0.482,0.969,0.690,0.312,0.559,0.524,��쓌,0.6,��
2024/01/06,08:20,0.508,0.769,0.485,0.967,0.692,0.313,0.560,0.525,��쐼,0.8,��
2024/01/06,08:30,0.509,0.770,0.484,0.966,0.692,0.313,0.560,0.524,���k��,0.9,��
2024/01/06,08:40,0.509,0.770,0.484,0.969,0.694,0.313,0.561,0.524,�k�k��,0.6,��
2024/01/06,08:50,0.511,0.770,0.483,0.970,0.692,0.315,0.560,0.523,�k�k��,1.7,��
2024/01/06,09:00,0.510,0.771,0.485,0.969,0.693,0.312,0.560,0.524,-,CALM,��
2024/01/06,09:10,0.510,0.770,0.485,0.969,0.692,0.314,0.560,0.523,��쓌,1.2,��
2024/01/06,09:20,0.510,0.770,0.485,0.969,0.692,0.313,0.561,0.523,�쓌,2.3,��
2024/01/06,09:30,0.510,0.770,0.484,0.969,0.695,0.314,0.560,0.525,��쓌,3.2,��
2024/01/06,09:40,0.510,0.770,0.485,0.969,0.694,0.315,0.560,0.524,��쓌,4.1,��
2024/01/06,09:50,0.509,0.771,0.485,0.968,0.693,0.314,0.560,0.525,��쓌,4.0,��
2024/01/06,10:00,0.511,0.771,0.485,0.971,0.694,0.313,0.559,0.527,��쓌,3.0,��
2024/01/06,10:10,0.510,0.771,0.484,0.969,0.696,0.312,0.558,0.525,�쓌,1.8,��
2024/01/06,10:20,0.511,0.771,0.485,0.970,0.694,0.313,0.560,0.525,-,CALM,��
2024/01/06,10:30,0.511,0.769,0.485,0.969,0.694,0.313,0.559,0.525,��쓌,2.3,��
2024/01/06,10:40,0.510,0.771,0.485,0.969,0.694,0.313,0.557,0.525,��,2.6,��
2024/01/06,10:50,0.509,0.769,0.485,0.970,0.694,0.316,0.559,0.525,��,1.2,��
2024/01/06,11:00,0.509,0.770,0.486,0.970,0.697,0.314,0.558,0.526,��,1.5,��
2024/01/06,11:10,0.512,0.772,0.486,0.969,0.695,0.314,0.558,0.524,���k��,3.3,��
2024/01/06,11:20,0.511,0.772,0.484,0.970,0.695,0.314,0.559,0.525,�k�k��,0.8,��
2024/01/06,11:30,0.511,0.771,0.487,0.972,0.695,0.314,0.560,0.525,���쓌,3.2,��
2024/01/06,11:40,0.511,0.771,0.487,0.971,0.696,0.313,0.560,0.525,�쓌,2.8,��
2024/01/06,11:50,0.511,0.770,0.487,0.971,0.694,0.312,0.559,0.525,�쓌,3.1,��
2024/01/06,12:00,0.509,0.768,0.485,0.970,0.694,0.313,0.558,0.525,�쓌,3.6,��
2024/01/06,12:10,0.509,0.768,0.488,0.971,0.693,0.312,0.560,0.523,�쓌,3.3,��
2024/01/06,12:20,0.509,0.767,0.487,0.973,0.693,0.312,0.559,0.526,�쓌,2.8,��
2024/01/06,12:30,0.511,0.769,0.487,0.971,0.692,0.314,0.560,0.523,���쓌,2.8,��
2024/01/06,12:40,0.509,0.769,0.485,0.968,0.695,0.316,0.559,0.523,���쓌,3.2,��
2024/01/06,12:50,0.510,0.771,0.485,0.971,0.692,0.315,0.560,0.523,�쓌,2.2,��
2024/01/06,13:00,0.510,0.771,0.485,0.969,0.693,0.316,0.559,0.522,�쓌,3.2,��
2024/01/06,13:10,0.510,0.770,0.486,0.972,0.694,0.316,0.561,0.523,�쓌,2.6,��
2024/01/06,13:20,0.511,0.770,0.484,0.971,0.693,0.314,0.559,0.523,�쓌,2.6,��
2024/01/06,13:30,0.509,0.770,0.486,0.972,0.696,0.315,0.560,0.523,���쓌,2.0,��
2024/01/06,13:40,0.508,0.770,0.485,0.972,0.694,0.315,0.560,0.524,�쓌,2.0,��
2024/01/06,13:50,0.510,0.768,0.485,0.971,0.695,0.314,0.561,0.522,�쓌,1.5,��
2024/01/06,14:00,0.509,0.771,0.485,0.972,0.694,0.316,0.561,0.522,�쓌,2.3,��
2024/01/06,14:10,0.510,0.768,0.486,0.973,0.695,0.314,0.559,0.523,��,1.5,��
2024/01/06,14:20,0.508,0.770,0.486,0.974,0.693,0.315,0.560,0.523,�k��,1.9,��
2024/01/06,14:30,0.510,0.772,0.486,0.972,0.695,0.315,0.559,0.523,�k,3.0,��
2024/01/06,14:40,0.511,0.771,0.489,0.971,0.695,0.315,0.559,0.521,�k,2.6,��
2024/01/06,14:50,0.509,0.769,0.487,0.971,0.697,0.315,0.560,0.522,�k�k��,1.7,��
2024/01/06,15:00,0.509,0.771,0.486,0.969,0.696,0.315,0.561,0.523,�k�k��,0.9,��
2024/01/06,15:10,0.510,0.773,0.486,0.974,0.696,0.314,0.562,0.522,���k��,0.6,��
2024/01/06,15:20,0.510,0.772,0.485,0.971,0.696,0.316,0.560,0.523,��,1.1,��
2024/01/06,15:30,0.509,0.771,0.487,0.970,0.697,0.315,0.561,0.524,���k��,0.6,��
2024/01/06,15:40,0.511,0.775,0.488,0.972,0.697,0.315,0.560,0.525,-,CALM,��
2024/01/06,15:50,0.511,0.773,0.489,0.972,0.696,0.314,0.559,0.526,���쓌,1.2,��
2024/01/06,16:00,0.510,0.772,0.486,0.972,0.697,0.315,0.561,0.526,���k��,0.8,��
2024/01/06,16:10,0.511,0.773,0.487,0.972,0.695,0.313,0.560,0.526,���k��,1.7,��
2024/01/06,16:20,0.510,0.771,0.486,0.972,0.695,0.315,0.560,0.526,��,1.5,��
2024/01/06,16:30,0.511,0.774,0.487,0.970,0.696,0.315,0.560,0.524,�k��,0.8,��
2024/01/06,16:40,0.511,0.774,0.487,0.972,0.696,0.314,0.562,0.525,�쐼,0.9,��
2024/01/06,16:50,0.511,0.774,0.487,0.971,0.693,0.316,0.561,0.526,��쐼,1.7,��
2024/01/06,17:00,0.511,0.772,0.488,0.973,0.695,0.315,0.561,0.525,��쐼,2.2,��
2024/01/06,17:10,0.510,0.773,0.485,0.971,0.695,0.314,0.561,0.524,���쐼,2.0,��
2024/01/06,17:20,0.512,0.774,0.486,0.974,0.696,0.314,0.561,0.524,��,2.5,��
2024/01/06,17:30,0.510,0.773,0.486,0.971,0.694,0.314,0.563,0.524,���k��,5.3,��
2024/01/06,17:40,0.511,0.771,0.487,0.972,0.697,0.315,0.561,0.524,��,6.4,��
2024/01/06,17:50,0.512,0.771,0.487,0.972,0.696,0.314,0.561,0.525,���쐼,6.2,��
2024/01/06,18:00,0.510,0.772,0.486,0.973,0.697,0.314,0.562,0.526,��,5.5,��
2024/01/06,18:10,0.511,0.773,0.485,0.973,0.697,0.314,0.562,0.525,��,5.3,��
2024/01/06,18:20,0.513,0.771,0.486,0.972,0.696,0.315,0.561,0.526,��,4.9,��
2024/01/06,18:30,0.512,0.772,0.487,0.974,0.696,0.314,0.561,0.525,���k��,5.1,��
2024/01/06,18:40,0.511,0.772,0.486,0.972,0.696,0.314,0.561,0.524,���k��,4.4,��
2024/01/06,18:50,0.511,0.772,0.487,0.973,0.696,0.314,0.563,0.525,��,4.2,��
2024/01/06,19:00,0.513,0.773,0.487,0.972,0.695,0.314,0.561,0.525,���k��,4.5,��
2024/01/06,19:10,0.511,0.772,0.486,0.973,0.694,0.315,0.561,0.524,��,4.4,��
2024/01/06,19:20,0.510,0.773,0.486,0.974,0.694,0.314,0.561,0.524,��,3.7,��
2024/01/06,19:30,0.511,0.772,0.487,0.973,0.697,0.315,0.561,0.525,���k��,3.3,��
2024/01/06,19:40,0.511,0.773,0.487,0.971,0.696,0.316,0.561,0.524,�k��,2.5,��
2024/01/06,19:50,0.510,0.772,0.486,0.972,0.694,0.315,0.562,0.524,�k��,2.5,��
2024/01/06,20:00,0.512,0.773,0.485,0.972,0.696,0.315,0.560,0.526,�k��,3.4,��
2024/01/06,20:10,0.510,0.772,0.487,0.973,0.695,0.314,0.562,0.525,�k��,3.0,��
2024/01/06,20:20,0.511,0.772,0.487,0.973,0.695,0.314,0.561,0.524,�k�k��,2.5,��
2024/01/06,20:30,0.510,0.773,0.487,0.974,0.696,0.315,0.560,0.525,�k�k��,4.3,��
2024/01/06,20:40,0.512,0.773,0.485,0.975,0.697,0.314,0.562,0.524,�k��,4.8,��
2024/01/06,20:50,0.513,0.773,0.486,0.970,0.697,0.315,0.562,0.525,�k��,4.8,��
2024/01/06,21:00,0.511,0.773,0.488,0.976,0.696,0.315,0.563,0.524,�k,4.8,��
2024/01/06,21:10,0.511,0.772,0.487,0.974,0.696,0.314,0.561,0.525,�k�k��,5.3,��
2024/01/06,21:20,0.513,0.773,0.486,0.970,0.697,0.313,0.561,0.525,�k��,4.8,��
2024/01/06,21:30,0.512,0.772,0.484,0.973,0.697,0.315,0.561,0.525,�k�k��,3.9,��
2024/01/06,21:40,0.511,0.774,0.486,0.976,0.697,0.314,0.562,0.526,�k��,4.1,��
2024/01/06,21:50,0.512,0.773,0.487,0.972,0.695,0.316,0.560,0.525,�k��,4.9,��
2024/01/06,22:00,0.513,0.773,0.487,0.975,0.696,0.315,0.561,0.525,�k�k��,5.1,��
2024/01/06,22:10,0.511,0.773,0.486,0.975,0.695,0.315,0.560,0.524,�k��,4.5,��
2024/01/06,22:20,0.511,0.772,0.488,0.974,0.695,0.313,0.560,0.526,���k��,5.7,��
2024/01/06,22:30,0.511,0.773,0.487,0.973,0.694,0.315,0.562,0.525,�k��,6.4,��
2024/01/06,22:40,0.512,0.771,0.487,0.973,0.697,0.314,0.562,0.526,���k��,6.7,��
2024/01/06,22:50,0.512,0.773,0.487,0.974,0.697,0.316,0.563,0.525,���k��,6.9,��
2024/01/06,23:00,0.512,0.774,0.486,0.973,0.696,0.314,0.562,0.524,���k��,5.8,��
2024/01/06,23:10,0.511,0.772,0.486,0.974,0.695,0.315,0.562,0.524,���k��,7.1,��
2024/01/06,23:20,0.512,0.772,0.486,0.974,0.697,0.316,0.562,0.525,���k��,6.4,��
2024/01/06,23:30,0.512,0.773,0.486,0.973,0.697,0.315,0.562,0.525,�k��,5.3,��
2024/01/06,23:40,0.512,0.772,0.488,0.974,0.697,0.314,0.562,0.526,�k��,5.1,��
2024/01/06,23:50,0.511,0.773,0.486,0.975,0.695,0.314,0.563,0.526,���k��,5.5,��
